Location: downtown San Diego
(32.7310°N, 117.1990°W)
Time: 22:32:17
(UTC-08:00)

ATLAS CENTAUR R/B - Pass Details

Date: 12 July 2018
Orbit: 451 x 700 km, 64.7° (Epoch: 03 December)

Event Time Altitude Azimuth Distance (km) Brightness Sun altitude
Exits shadow 20:34:22 - 166° (SSE) 2,289 4.0 -7.4°
Reaches altitude 10° 20:36:37 10° 144° (SE) 1,626 3.1 -7.8°
Drops below altitude 10° 20:40:52 10° 73° (ENE) 1,691 3.4 -8.5°
Enters shadow 22:05:08 -18° 219° (SW) 5,168 6.3 -22.1°
Maximum altitude 22:17:19 28° 305° (NW) 957 3.2 -23.8°
